LiveATC.Net - Listen to live air traffic control over the Internet!


ICAO: KBJC  IATA: BJC   Airport: Rocky Mountain Metropolitan Airport
City: Denver   State/Province: Colorado
Country: United States   Continent: North America
KBJC METAR Weather: KBJC 261259Z 34007KT 10SM SKC 10/02 A3031
KBJC ADS-B Flight Tracking (ADSBExchange)
KBJC Flight Activity (FlightAware)
KBJC Webcam:  (Airport Webcams) 
KBJC Airport Info   (iFlightPlanner)
KBJC VFR Sectional Chart   (iFlightPlanner) 
KBJC IFR Low Altitude Chart   (iFlightPlanner) 
KBJC IFR High Altitude Chart   (iFlightPlanner) 

KBJC Ground/Tower
Feed Status: UP   Listeners: 3
Listen in your browser - HTML5 player (in browser, HTML5)
Click here to listen with your own player (launches your MP3 player)
Archive Access: KBJC Ground/Tower
FacilityFrequency
Metro Ground121.700
Metro Tower118.600
Metro Tower123.950

NOTICE

Unauthorized use prohibited. See LiveATC.net Terms of Service


Airport/ARTCC Code
Frequency Search
(e.g., 124.400, 128.75)
Site-wide search
 


Browse Feeds
Top 50 Feeds
HF Oceanic Feeds
Coverage Map
Bad Weather Areas

LiveATC FAQ
Offer LiveATC feed
Contact LiveATC.net
Press Inquiries

LiveATC on iPhone
LiveATC on Android

LiveATC Mobile
(Mobile browser)

ATC Audio Archives
Interesting Recordings

LiveATC Forums


Home Page
About LiveATC.net


Terms of Use
Privacy Policy

AIRMETs/SIGMETs

FAA Airport Status
NAS Status
Arrival Demand


Server Software By:
Icecast.org
Liquidsoap